Theta_e
348 348 346 345 344 344 347 348 350 351 354 352 349 346 347 346 349 353 348 346 349 351 351 350 350 348 350 351 355 354 351 354 352
348 350 345 343 344 345 346 346 350 352 354 352 350 349 348 349 348 351 350 351 349 352 351 350 349 349 350 353 353 353 352 355 353
350 348 346 344 344 344 348 348 349 352 354 352 350 349 349 353 351 349 351 353 353 349 352 351 352 353 354 354 352 354 354 353 353
349 351 350 349 348 346 345 349 350 353 354 354 352 349 349 352 352 350 350 350 352 351 352 352 352 353 352 352 354 354 354 354 353
345 348 345 349 348 346 348 349 351 355 355 354 355 353 350 349 348 348 348 349 350 350 350 348 348 352 352 353 353 354 354 353 353
348 347 342 344 346 344 344 347 348 350 355 354 354 353 353 351 350 349 349 351 349 347 351 350 352 351 353 353 353 353 353 353 353
338 345 342 345 346 345 343 346 347 349 352 354 353 352 353 355 354 352 353 352 350 353 353 352 349 352 353 351 348 350 352 352 351
348 346 346 345 350 347 349 348 348 347 345 350 353 353 352 353 353 353 351 352 352 354 352 351 350 351 351 353 354 354 352 351 352
348 348 344 344 342 344 346 349 349 348 345 345 345 341 353 353 352 353 353 352 352 351 353 352 353 353 352 353 353 351 349 351 352
346 344 342 339 338 339 344 344 347 346 343 343 341 338 346 352 354 351 351 351 351 350 350 350 350 350 350 349 350 347 347 347 345
342 341 337 334 335 336 341 344 345 346 342 341 340 336 352 352 351 351 352 351 351 350 351 349 347 348 349 348 346 346 346 346 344
336 337 334 335 337 333 334 339 342 343 346 344 340 346 348 346 351 350 350 350 350 350 350 349 349 348 346 345 343 344 344 343 341
334 332 332 332 333 335 341 342 343 343 343 346 345 347 346 347 348 347 346 346 346 346 346 347 346 344 341 339 337 336 339 337 338
332 330 328 329 327 327 331 341 342 340 340 340 343 342 342 341 340 339 339 341 340 342 342 340 335 330 327 328 329 331 334 335 337
332 328 327 326 325 326 331 333 342 338 336 340 340 339 340 339 338 338 338 338 335 336 332 330 326 327 325 326 327 329 333 334 333
329 327 325 325 325 324 326 330 332 334 333 338 339 338 337 336 335 334 332 332 331 328 328 327 325 323 322 322 323 326 332 331 328
328 326 324 323 323 324 323 327 327 329 331 332 334 334 335 335 333 332 331 330 329 329 328 326 325 325 324 325 327 325 325 324 317
330 326 324 323 322 320 321 326 327 328 329 330 329 328 330 331 332 332 331 331 330 330 329 329 328 327 326 325 325 322 318 316 316
327 325 324 323 321 323 323 320 322 326 329 329 329 327 328 329 329 330 330 329 327 327 328 328 328 328 326 322 320 318 318 315 310
325 323 324 324 325 326 325 325 323 322 316 320 323 323 324 324 322 321 320 318 316 316 316 315 313 311 310 309 308 308 307 308 308
Wind_Speed
13 19 11 18 15 15 32 35 36 35 37 36 35 33 28 25 22 13 13 17 17 16 16 16 16 13 16 12 9 8 9 7 7
13 14 13 15 16 21 34 33 36 39 37 35 38 35 31 27 24 21 19 17 21 14 14 11 14 14 15 12 11 10 10 10 11
6 14 12 16 10 25 33 37 37 38 39 40 41 38 34 30 28 26 20 13 16 17 11 9 13 11 12 14 13 13 13 13 12
7 9 2 10 2 11 18 25 31 36 37 34 34 37 35 33 31 28 26 19 14 17 13 10 11 12 12 12 12 13 14 13 13
3 3 10 14 10 9 3 7 22 24 33 35 35 37 35 33 33 30 28 25 21 19 16 13 14 13 11 11 12 14 13 13 14
4 6 7 8 5 9 17 16 8 13 24 31 35 32 35 34 32 31 30 28 24 22 19 16 14 13 13 11 10 10 10 12 12
5 6 5 1 6 6 9 10 25 19 15 26 34 35 33 33 35 34 32 29 25 20 19 17 13 11 11 10 10 9 8 7 8
8 2 12 12 4 3 6 11 11 17 23 19 13 32 34 33 34 31 30 25 19 19 17 16 12 11 10 9 9 8 7 7 9
11 9 8 7 12 10 4 12 19 21 32 20 14 28 30 34 33 30 25 23 21 20 18 14 15 15 8 10 12 8 5 3 6
5 3 4 5 7 14 18 17 7 16 11 23 19 41 32 37 30 30 27 24 20 19 20 18 14 13 11 10 9 8 6 6 4
4 3 3 3 3 14 31 23 14 5 9 16 17 21 22 31 29 26 23 21 20 18 16 14 12 11 12 11 8 7 8 8 6
3 1 5 7 8 14 16 9 17 9 8 19 28 25 7 14 13 12 11 11 13 12 9 8 11 12 12 9 6 8 6 6 6
5 2 7 9 6 5 9 5 6 7 10 12 15 18 18 17 18 19 16 9 8 9 9 11 7 7 5 6 4 5 8 6 7
10 10 5 5 7 6 5 7 5 8 12 11 19 22 23 26 28 26 21 16 10 11 13 13 11 11 10 8 7 9 10 11 12
7 7 4 9 12 9 9 4 14 11 9 8 14 16 21 21 25 28 21 23 15 18 15 19 17 19 15 13 11 10 10 7 6
8 4 7 8 8 10 10 8 8 22 8 13 19 18 21 23 24 27 25 26 21 20 21 22 21 18 16 12 12 11 8 7 7
8 8 8 8 12 12 14 16 13 25 16 18 21 22 28 23 23 21 22 21 18 18 19 17 17 17 16 13 11 7 8 8 9
12 12 9 7 10 16 19 19 19 17 20 22 24 22 23 24 23 22 21 17 15 13 12 11 12 10 10 11 8 6 5 6 5
13 15 13 11 13 16 17 21 26 23 24 24 26 22 19 19 19 19 19 19 18 15 14 13 13 12 9 9 7 6 6 5 5
19 15 14 14 14 16 18 18 20 16 20 22 22 24 17 17 20 20 21 20 21 19 14 13 12 11 11 9 9 7 6 6 6
Wind_Direction
211 214 175 168 208 201 175 177 177 182 184 187 189 195 204 205 207 210 204 190 201 195 210 215 205 201 205 210 212 214 214 236 264
213 184 177 183 200 180 175 182 180 186 184 189 190 194 197 204 207 201 208 210 212 210 218 198 217 195 201 216 229 240 229 234 244
215 188 189 200 181 183 182 186 186 186 184 189 195 195 200 200 202 200 201 208 214 209 205 201 173 197 204 215 225 234 237 239 246
101 133 10 350 148 174 193 187 181 184 185 186 194 193 196 198 203 205 204 205 199 200 206 208 213 221 224 225 231 239 242 248 254
220 225 140 175 159 134 29 165 173 188 188 184 189 195 193 197 204 209 210 211 213 210 209 219 232 230 229 238 242 243 242 244 254
204 233 212 156 163 175 186 222 205 192 203 194 188 193 194 199 204 206 207 210 213 211 213 215 225 230 232 236 237 238 240 242 251
210 242 262 306 189 215 221 241 200 199 202 222 190 196 195 193 201 205 210 210 211 210 210 210 216 217 222 226 227 228 228 240 243
294 62 36 9 347 287 248 193 226 211 227 259 237 191 195 201 202 205 209 208 207 200 203 218 223 216 222 229 224 223 236 242 228
21 52 32 45 29 352 280 220 197 202 208 217 294 333 206 196 201 199 200 205 198 200 203 212 207 198 212 209 214 217 211 195 196
75 20 31 61 66 51 12 286 199 171 196 218 234 271 279 191 194 197 202 210 210 210 215 214 215 217 212 211 209 210 231 253 251
113 73 303 68 66 62 46 359 299 256 187 201 246 270 190 183 182 190 190 190 200 211 218 227 230 227 212 208 206 232 256 263 262
80 165 277 357 14 72 76 2 329 338 209 204 199 208 189 134 160 169 176 194 198 198 205 192 184 167 166 180 209 227 228 240 221
99 350 11 26 14 39 111 84 329 2 92 131 113 142 159 154 149 120 95 91 132 132 134 132 141 135 147 186 186 214 190 155 113
65 61 17 35 45 51 357 125 119 73 46 49 118 124 114 116 115 108 102 90 105 104 122 129 122 111 100 94 88 104 112 102 96
74 52 10 39 55 50 59 359 142 105 65 76 98 98 112 113 111 113 118 111 109 111 123 111 116 109 104 107 109 106 99 103 92
101 101 56 59 74 76 81 86 136 113 90 114 121 116 116 119 118 115 123 110 114 116 117 115 113 113 106 96 97 103 112 98 88
131 122 97 91 84 73 75 90 89 104 113 125 123 121 121 129 125 123 117 118 124 117 108 114 115 115 113 109 97 90 100 91 76
139 129 120 105 92 87 76 89 92 102 114 118 115 120 129 130 131 124 117 112 110 109 111 115 113 106 113 111 120 132 106 88 78
113 119 123 109 105 103 100 94 95 96 103 110 115 113 118 121 123 123 120 119 109 104 105 107 110 113 113 114 109 105 89 71 54
133 130 125 125 116 99 94 98 105 105 103 109 112 112 118 120 119 122 123 121 119 116 112 111 109 108 104 100 92 82 70 51 29